Location: Squirrel Cove
(50.1074°N, 124.9139°W)
Time: 13:59:11
(UTC-07:00)

PCSat - Pass Details

Date: 25 May 2022
Orbit: 784 x 795 km, 67.1° (Epoch: 26 June)

Event Time Altitude Azimuth Distance (km) Brightness Sun altitude
Rises 04:21:26 0° 315° (NW) 3,306 12.8 -8.0°
Reaches altitude 10° 04:24:22 10° 300° (WNW) 2,371 11.9 -7.7°
Maximum altitude 04:28:22 21° 252° (WSW) 1,708 10.8 -7.3°
Drops below altitude 10° 04:32:21 10° 204° (SSW) 2,356 11.4 -6.8°
Enters shadow 04:34:36 - 192° (SSW) 3,052 12.1 -6.5°
